Regional Weather Roundup
Issued by NWS

Home | Current Version | Previous Version | Text Only | Print | Product List | Glossary Off
Versions: 1 2 3 4 5 6 7 8 9 10 11 12 13 14 15 16 17 18 19 20 21 22 23 24 25 26 27 28

000
ASUS45 KBOI 291810
RWRID

IDAHO REGIONAL WEATHER ROUNDUP
NATIONAL WEATHER SERVICE BOISE ID
1200 PM MDT FRI JUL 29 2016

NOTE: "FAIR" INDICATES FEW OR NO CLOUDS BELOW 12000 FEET
WITH NO SIGNIFICANT WEATHER AND/OR OBSTRUCTIONS TO VISIBILITY

IDZ012-014-291900-
SOUTHWEST IDAHO


CITY           SKY/WX    TMP DP  RH WIND       PRES   REMARKS
BOISE          SUNNY     87  45  23 NW6       29.99S
CALDWELL       SUNNY     87  50  27 NW5       29.97F
MOUNTAIN HOME  SUNNY     94  43  17 NW9       29.98F HX  90
$$

IDZ016-017-291900-
SOUTHCENTRAL IDAHO


CITY           SKY/WX    TMP DP  RH WIND       PRES   REMARKS
BURLEY         SUNNY     83  48  29 W8        30.06F
JEROME         SUNNY     83  45  26 SW8       30.07F
TWIN FALLS     SUNNY     88  44  21 W9        30.07S
$$

IDZ019>023-291900-
SOUTHEAST IDAHO


CITY           SKY/WX    TMP DP  RH WIND       PRES   REMARKS
IDAHO FALLS    SUNNY     80  38  22 VRB6      30.11S
POCATELLO      SUNNY     87  39  18 VRB6      30.10F
REXBURG        SUNNY     82  42  24 S7        30.11S
$$

IDZ006-010-011-018-031-032-291900-
CENTRAL IDAHO MOUNTAINS


CITY           SKY/WX    TMP DP  RH WIND       PRES   REMARKS
MCCALL         SUNNY     80  42  25 VRB3      30.13F
HAILEY         SUNNY     82  46  28 SE8       30.13F
STANLEY          N/A     81  36  19 NE8       30.22F
SALMON         SUNNY     79  48  34 CALM      30.05F
CHALLIS        SUNNY     81  43  26 NE3       30.11F
$$

IDZ002-004-006-007-026-291900-
NORTHERN IDAHO


CITY           SKY/WX    TMP DP  RH WIND       PRES   REMARKS
LEWISTON       SUNNY     88  53  30 NE3       29.93F
LOWELL           N/A     80  56  43 N3        29.95F
COEUR D`ALENE  SUNNY     84  55  37 CALM      29.96F
MULLAN PASS    SUNNY     73  43  33 VRB3      30.22F
$$




USA.gov is the U.S. government's official web portal to all federal, state and local government web resources and services.